Find Starlink 33566

NORAD ID: 62100 Int'l Des: 2024-220 Owner: SPXS Country: US Constellation: starlink operational
LEOCIRCULAR

Current View

Loading 3D Globe...

About Starlink 33566

Starlink 33566 (NORAD 62100) is a starlink constellation satellite (v2 mini) launched Nov 25, 2024 by SPXS of US. It operates in LEO, CIRCULAR orbit with a mass of 530.00 kg.

Upcoming Passes

Passes for default location (London). Set your location on the main map for personalized predictions.

Altitude History

Loading altitude history...

Two-Line Element Set

1 62100U 24220N 26237.53541692 .00020563 00000-0 75375-3 0 9990
2 62100 43.0042 317.2870 0001793 291.8801 68.1860 15.27620925 99186
Epoch: Aug 25, 2026 • Age: 5 hours

Current Status

Altitude 483.9 km
Apogee / Perigee N/A
Velocity 7.63 km/s
Sub-Earth Point 29.46°N, 112.81°E
Launch Date Nov 25, 2024
Age 1.7 years
Type internet

Technical Details

Classification Payload
Mass 530.00 kg
Dry Mass 500.00 kg
Total Mass 530.00 kg
Length 0.30 m
Diameter 4.10 m
Span 29.00 m
Shape Box + pan
Manufacturer SPXS
Bus Type Starlink V2MO
Phase Status In Orbit
Owner/State SPXS/US

Most Searched